Location: Auckland
(36.8670°S, 174.7670°E)
Time: 12:04:13
(UTC+12:00)

Courier 1B Rocket - Pass Details

Date: 20 July 2019
Orbit: 920 x 1202 km, 28.3° (Epoch: 19 August)

Event Time Altitude Azimuth Distance (km) Brightness Sun altitude
Rises 03:16:40 0° 332° (NNW) 4,084 - -50.0°
Reaches altitude 10° 03:20:49 10° 351° (N) 3,107 - -49.2°
Maximum altitude 03:25:14 16° 26° (NNE) 2,633 - -48.3°
Exits shadow 03:27:57 14° 50° (NE) 2,793 7.6 -47.8°
Drops below altitude 10° 03:29:33 10° 62° (ENE) 3,036 7.9 -47.5°
Sets 03:33:31 0° 82° (E) 3,947 8.8 -46.7°
